Wind_Speed
25 23 21 20 18 15 13 10 8 6 4 4 4 4 6 7 8 9 10 11 12 13 13 14 14 14 14 14 15 15 16 16 17 17 17 17 16 16 15 15 15 15
27 26 24 22 19 16 14 12 10 7 6 6 5 5 6 7 8 8 8 9 10 11 12 12 12 12 12 12 13 14 14 15 15 16 16 16 16 15 15 14 14 13
26 25 23 20 18 16 15 14 12 9 8 7 7 6 6 7 8 7 7 8 8 8 9 10 10 10 10 11 11 12 13 13 14 14 14 15 14 14 13 13 13 12
24 22 20 18 18 18 17 15 14 11 9 8 8 7 6 7 7 7 7 7 6 6 6 7 8 8 8 9 10 11 11 12 12 12 13 13 13 13 12 11 11 11
23 21 19 19 19 19 18 17 15 13 11 10 9 8 7 6 7 7 7 6 6 5 5 5 6 6 7 7 8 9 10 11 11 11 11 11 11 11 11 10 10 9
23 22 20 20 21 20 19 17 16 14 13 11 10 9 8 6 6 6 6 6 6 4 4 3 3 4 4 5 7 8 9 10 10 10 10 10 10 10 9 8 8 8
23 22 22 22 22 21 20 18 17 16 15 13 11 10 9 8 7 7 7 7 6 5 4 2 1 2 3 5 7 9 10 11 11 10 9 9 8 8 8 7 7 7
22 23 23 24 23 23 22 20 18 17 16 14 12 11 10 9 8 8 7 7 6 5 4 3 1 1 4 6 8 10 11 12 12 11 10 9 8 8 7 7 7 7
22 23 24 25 25 24 24 22 20 18 17 16 14 13 12 11 10 9 8 7 7 6 5 4 3 3 4 6 8 10 12 12 12 11 10 10 9 8 8 7 7 7
23 23 24 25 25 25 25 24 22 21 19 17 16 15 13 12 12 10 9 8 7 7 6 5 4 4 5 7 9 10 11 12 12 12 11 10 10 9 8 8 7 7
25 25 25 25 24 24 25 24 23 23 21 19 19 17 16 14 13 12 10 9 8 8 7 6 5 6 7 8 9 10 11 12 12 11 11 10 10 9 9 9 8 8
27 27 27 26 25 24 24 24 23 23 22 21 20 19 18 17 16 14 12 10 9 9 8 8 7 7 8 8 9 10 10 11 12 11 10 10 10 9 9 9 9 8
29 29 29 27 26 25 25 24 24 23 22 21 21 21 20 20 18 17 15 13 12 11 10 10 10 9 9 9 9 9 10 11 11 11 11 10 10 9 9 9 9 9
30 31 31 30 28 27 27 27 26 25 24 23 22 22 22 21 20 19 17 16 15 13 12 12 11 11 10 10 9 9 9 10 11 11 10 10 10 10 9 9 9 9
31 32 32 32 31 30 30 30 29 27 26 24 24 23 22 22 22 21 20 19 18 16 15 15 14 13 11 10 9 8 9 10 10 10 10 10 10 10 10 10 9 9
31 32 33 34 34 34 33 32 31 30 28 27 26 24 24 23 22 22 22 21 20 19 18 17 16 14 12 11 9 8 8 9 10 10 10 10 10 10 10 10 9 8
32 32 33 34 35 36 35 35 34 32 31 30 29 27 26 25 25 24 24 23 22 21 21 19 18 15 13 11 10 9 9 9 10 10 11 11 10 11 11 11 10 9
34 32 31 33 35 36 37 37 36 35 33 32 31 30 29 28 27 27 26 24 23 23 22 21 19 16 14 13 12 11 10 10 10 11 11 11 11 10 10 11 10 10
35 33 32 32 34 35 37 37 37 36 35 34 33 32 31 30 29 29 27 25 24 24 23 22 20 17 16 15 14 13 12 12 12 12 12 12 11 10 9 9 10 10
35 35 34 33 33 34 36 38 38 39 38 37 35 33 32 32 31 29 28 26 24 24 23 22 21 19 18 17 16 15 14 14 13 14 13 13 11 9 9 9 9 10
37 37 36 34 33 33 35 36 38 39 39 39 37 36 35 34 32 30 29 27 25 24 23 23 22 20 19 18 18 17 16 16 16 16 15 13 11 10 9 9 9 9
38 39 38 36 34 34 34 35 37 38 38 37 37 37 36 35 34 32 31 28 26 24 23 23 23 21 21 21 20 19 18 18 18 17 15 14 12 11 10 9 9 9
42 43 42 40 38 37 36 36 37 38 37 36 36 36 36 35 35 34 32 29 27 25 25 25 24 23 22 22 22 21 21 21 19 17 16 15 13 12 10 10 9 9
47 45 44 43 42 40 38 37 37 37 36 35 34 34 34 33 33 32 31 29 27 27 27 26 25 24 24 24 24 23 23 21 19 17 16 15 13 12 11 10 10 9
48 47 45 45 44 42 40 37 37 37 37 36 34 33 31 30 29 29 28 27 27 27 27 27 26 26 25 25 25 24 23 21 19 17 16 14 12 11 11 11 10 9
51 49 47 47 47 45 42 39 38 39 39 38 35 32 30 29 28 27 27 26 26 27 27 27 27 27 26 26 25 24 24 22 19 18 16 13 12 12 12 12 10 9
Wind_Direction
240 247 253 258 262 266 264 247 236 237 234 221 200 158 136 130 125 117 111 107 104 100 95 89 83 78 72 66 62 58 56 54 52 51 49 46 44 45 48 49 49 49
236 243 248 252 255 259 255 239 227 228 227 220 209 182 154 142 134 126 117 113 111 107 101 95 88 82 75 67 60 55 52 50 48 47 46 45 42 40 42 44 45 46
230 235 239 243 244 246 243 230 220 220 222 219 212 195 172 156 148 140 128 120 118 113 107 100 94 87 78 69 59 52 47 44 43 42 42 42 40 37 37 40 41 43
220 224 226 228 232 234 232 224 217 214 216 218 214 203 186 169 158 151 141 132 128 123 113 105 98 91 82 70 59 50 43 40 38 38 39 39 38 35 35 36 38 40
213 212 212 217 223 226 224 220 216 213 213 216 215 208 200 183 167 161 154 148 145 139 126 111 99 90 79 65 54 44 37 33 32 33 34 35 35 34 33 33 34 36
212 206 204 210 216 218 216 215 215 214 213 213 213 211 206 193 182 174 167 164 165 163 149 126 100 80 63 45 35 30 26 24 24 26 28 30 31 32 32 31 30 29
214 206 202 206 211 213 212 212 214 215 215 214 213 213 209 202 196 189 184 183 184 184 179 165 119 54 28 16 13 12 12 12 13 16 19 22 25 27 27 27 27 26
219 211 205 204 206 207 209 210 211 214 216 216 216 214 212 209 205 201 200 199 200 200 200 200 230 332 353 356 360 3 4 3 3 3 5 8 13 17 17 18 20 21
224 219 212 208 206 206 207 208 209 212 214 215 217 217 215 214 212 210 211 210 210 212 213 221 249 303 332 344 352 358 359 357 355 354 353 354 359 2 3 5 9 13
223 224 220 215 211 208 208 208 208 211 212 213 216 218 217 218 218 217 217 216 216 219 225 236 260 293 317 332 345 353 353 351 349 347 346 346 348 351 351 351 354 359
220 224 225 223 219 214 212 211 211 212 212 212 215 217 218 220 221 223 223 222 222 227 235 249 266 286 305 322 337 344 345 343 341 340 340 339 339 341 341 339 340 345
217 220 223 225 225 222 218 217 216 216 215 214 215 217 219 222 223 225 227 227 229 234 241 253 266 281 297 314 328 336 337 335 333 332 333 332 331 332 331 329 330 335
215 217 219 221 224 225 224 223 222 222 220 218 218 218 219 222 225 227 229 231 234 238 244 253 263 274 287 302 316 324 326 326 324 323 325 323 322 323 322 321 324 329
212 216 216 217 219 222 225 226 225 225 225 223 222 221 221 223 225 227 229 233 236 239 244 251 258 266 275 287 300 308 313 314 313 313 315 314 314 316 315 315 320 326
210 212 215 215 216 218 221 224 225 225 225 226 226 224 224 224 226 227 228 231 236 240 243 248 252 257 264 273 283 292 298 300 301 301 303 304 306 308 308 310 315 321
211 211 212 213 214 215 217 220 222 224 224 226 226 226 226 226 226 227 228 230 233 237 240 244 246 249 254 261 267 274 279 283 287 289 291 294 297 299 300 301 306 313
218 214 212 212 213 214 215 218 220 221 223 224 225 226 226 227 227 227 228 228 229 233 236 239 241 241 244 250 253 256 261 265 270 275 278 282 286 289 292 295 299 303
224 221 217 214 214 214 214 217 219 220 222 223 225 227 227 228 229 229 228 228 228 230 233 235 236 235 236 239 241 242 244 247 252 259 264 268 273 276 281 287 292 296
226 226 223 219 217 215 214 216 218 221 223 224 225 226 228 230 231 232 231 230 229 229 231 232 233 231 231 231 231 231 232 234 238 245 250 254 257 261 267 276 283 289
226 226 226 224 221 218 216 215 216 218 220 222 223 225 228 230 231 233 233 233 232 231 230 232 231 229 227 225 224 224 225 227 231 235 239 242 243 245 251 259 269 279
228 227 226 227 226 224 221 218 217 217 218 218 219 221 224 226 228 232 233 234 233 232 231 232 230 226 224 223 221 219 220 224 227 229 231 233 232 233 236 244 256 268
231 231 229 228 228 227 226 223 221 221 220 218 217 218 219 221 224 227 229 230 230 231 231 232 229 224 222 221 220 218 220 223 225 225 226 227 225 226 229 235 247 259
228 230 228 227 227 226 226 224 221 222 222 221 219 217 217 218 219 221 223 223 224 227 229 229 225 220 219 219 219 219 221 224 224 223 224 224 223 223 226 231 241 253
226 228 228 228 228 227 226 223 221 221 222 220 218 215 213 213 214 216 217 216 217 220 223 222 219 216 216 218 219 221 224 226 225 223 224 223 220 219 223 228 236 246
225 228 230 230 229 228 227 224 221 220 220 219 217 214 210 209 209 211 213 213 214 216 217 217 215 214 215 218 220 223 228 230 229 227 225 221 217 216 221 227 234 241
220 223 227 229 228 227 227 226 223 220 218 216 214 212 210 208 208 210 212 213 214 215 217 217 216 215 216 218 221 225 231 235 236 234 230 223 218 219 224 231 237 242
Height
11021 11022 11023 11025 11026 11027 11028 11028 11029 11030 11031 11031 11032 11033 11033 11034 11035 11035 11034 11034 11034 11034 11033 11033 11033 11033 11033 11033 11033 11033 11032 11032 11031 11031 11030 11030 11029 11029 11028 11028 11027 11026
11019 11020 11022 11023 11025 11026 11027 11027 11028 11029 11030 11031 11032 11033 11033 11034 11034 11035 11035 11035 11034 11034 11034 11034 11034 11034 11034 11034 11033 11033 11033 11032 11032 11031 11031 11030 11030 11030 11029 11029 11028 11028
11016 11018 11020 11022 11023 11024 11025 11026 11027 11028 11029 11030 11031 11032 11033 11033 11033 11034 11035 11035 11034 11034 11034 11034 11034 11034 11034 11034 11034 11033 11033 11033 11033 11032 11032 11031 11031 11030 11030 11029 11029 11028
11014 11015 11017 11019 11021 11022 11023 11025 11026 11027 11028 11029 11030 11031 11032 11032 11033 11033 11034 11034 11034 11034 11034 11034 11034 11034 11034 11034 11034 11033 11033 11033 11033 11032 11032 11031 11031 11031 11031 11030 11030 11029
11011 11013 11015 11016 11018 11020 11022 11023 11025 11026 11027 11028 11029 11030 11031 11032 11032 11033 11033 11034 11034 11034 11034 11034 11034 11034 11034 11034 11033 11033 11033 11033 11032 11032 11032 11031 11031 11031 11031 11030 11030 11029
11009 11010 11012 11014 11016 11018 11020 11022 11023 11024 11025 11026 11028 11029 11030 11031 11032 11032 11033 11033 11033 11033 11033 11033 11033 11033 11033 11033 11033 11033 11033 11032 11032 11032 11031 11031 11031 11031 11031 11030 11030 11029
11006 11008 11009 11011 11013 11016 11018 11020 11021 11022 11024 11025 11026 11027 11029 11030 11031 11032 11032 11032 11032 11032 11033 11033 11033 11033 11033 11033 11033 11032 11032 11032 11031 11031 11031 11030 11030 11030 11030 11030 11030 11029
11005 11006 11007 11009 11011 11013 11015 11017 11019 11020 11022 11023 11025 11026 11027 11028 11029 11031 11031 11032 11032 11032 11032 11032 11032 11032 11032 11032 11032 11032 11032 11031 11031 11031 11030 11030 11030 11029 11029 11029 11029 11029
11004 11005 11006 11007 11009 11011 11012 11014 11016 11018 11020 11022 11023 11024 11025 11027 11028 11029 11030 11030 11031 11031 11031 11031 11031 11031 11031 11031 11031 11031 11031 11031 11031 11030 11030 11029 11029 11029 11029 11029 11028 11028
11002 11003 11004 11005 11007 11008 11010 11012 11014 11016 11017 11019 11021 11022 11024 11025 11026 11027 11028 11029 11029 11030 11030 11030 11030 11031 11031 11031 11031 11031 11031 11030 11030 11030 11030 11029 11029 11029 11028 11028 11028 11027
10998 11001 11002 11004 11005 11007 11009 11011 11012 11013 11015 11017 11019 11020 11022 11023 11024 11025 11026 11027 11028 11028 11029 11029 11029 11029 11030 11030 11030 11030 11030 11030 11030 11029 11029 11029 11029 11029 11028 11028 11027 11027
10995 10997 10999 11001 11004 11006 11007 11009 11011 11012 11013 11015 11016 11018 11020 11021 11022 11023 11024 11025 11026 11026 11027 11027 11028 11028 11028 11029 11029 11029 11029 11029 11029 11029 11029 11029 11029 11028 11028 11028 11027 11026
10991 10993 10995 10998 11001 11004 11006 11007 11009 11010 11012 11013 11014 11016 11017 11018 11019 11021 11022 11023 11024 11024 11025 11025 11026 11026 11027 11027 11027 11028 11028 11028 11028 11027 11028 11028 11028 11028 11028 11027 11027 11026
10986 10988 10991 10994 10997 11000 11002 11004 11006 11007 11009 11011 11012 11013 11014 11015 11017 11018 11019 11020 11021 11021 11022 11023 11023 11024 11024 11025 11026 11026 11026 11026 11026 11026 11026 11026 11027 11027 11027 11026 11026 11026
10982 10984 10987 10989 10992 10995 10998 11000 11002 11004 11006 11008 11009 11010 11011 11013 11014 11015 11016 11017 11018 11019 11019 11020 11020 11021 11022 11023 11023 11024 11024 11025 11025 11025 11025 11025 11025 11025 11025 11025 11025 11025
10980 10981 10982 10985 10987 10990 10992 10995 10998 11000 11002 11004 11006 11007 11008 11010 11011 11012 11013 11014 11015 11015 11016 11017 11017 11018 11019 11020 11021 11022 11022 11023 11023 11023 11023 11023 11023 11024 11024 11024 11024 11024
10979 10979 10979 10981 10983 10985 10988 10991 10993 10996 10998 11000 11002 11004 11005 11006 11007 11009 11010 11011 11012 11012 11013 11013 11014 11015 11017 11017 11018 11019 11020 11021 11021 11021 11021 11021 11022 11022 11022 11022 11022 11022
10977 10978 10978 10979 10980 10981 10984 10986 10989 10992 10994 10996 10998 11000 11002 11003 11004 11005 11006 11008 11009 11010 11010 11010 11011 11012 11014 11015 11015 11016 11017 11018 11018 11019 11019 11019 11020 11020 11020 11020 11020 11020
10974 10976 10977 10978 10978 10979 10981 10983 10986 10988 10990 10992 10994 10997 10999 11000 11001 11003 11004 11005 11007 11007 11008 11008 11009 11010 11011 11011 11012 11013 11014 11015 11016 11016 11016 11017 11017 11018 11018 11019 11019 11019
10971 10972 10973 10975 10976 10977 10978 10979 10981 10983 10985 10987 10990 10993 10995 10997 10998 11000 11001 11003 11004 11005 11006 11006 11006 11007 11008 11008 11009 11010 11011 11012 11013 11013 11013 11014 11015 11016 11016 11017 11017 11018
10968 10968 10970 10972 10973 10975 10975 10976 10977 10978 10980 10982 10984 10987 10989 10991 10993 10996 10998 10999 11001 11003 11004 11004 11004 11005 11005 11006 11006 11007 11008 11009 11009 11010 11011 11012 11013 11014 11014 11015 11015 11016
10965 10966 10967 10968 10970 10971 10972 10974 10975 10975 10976 10978 10980 10982 10984 10986 10988 10990 10992 10995 10997 10999 11001 11002 11002 11003 11003 11003 11004 11004 11005 11005 11006 11007 11008 11009 11010 11011 11012 11013 11013 11014
10960 10960 10962 10963 10964 10966 10967 10969 10971 10971 10973 10975 10976 10978 10980 10981 10983 10985 10986 10989 10992 10994 10996 10997 10999 11000 11001 11001 11002 11002 11002 11002 11003 11004 11005 11006 11007 11009 11010 11011 11011 11012
10953 10954 10957 10958 10960 10961 10963 10965 10967 10968 10970 10972 10973 10974 10975 10976 10978 10980 10982 10984 10986 10988 10990 10993 10995 10997 10998 10999 11000 11000 11000 11000 11001 11002 11003 11004 11005 11006 11007 11008 11009 11010
10946 10949 10952 10954 10955 10957 10959 10961 10963 10964 10966 10968 10970 10971 10972 10973 10975 10977 10979 10981 10982 10984 10986 10989 10991 10993 10995 10997 10998 10998 10999 10999 11000 11000 11001 11002 11003 11005 11005 11006 11007 11007
10937 10941 10945 10947 10949 10952 10955 10957 10959 10961 10962 10963 10965 10967 10969 10971 10973 10974 10976 10978 10980 10982 10984 10986 10988 10990 10992 10993 10995 10997 10997 10998 10999 10999 11000 11001 11002 11003 11003 11004 11005 11005